Uitslag Zwemloop Sluis top 3

# Naam Totaal
1 Krug Alexis 00:38:32 81.98
2 Blondeel Thijs 00:39:45 79.31
3 Scherpeel Steven 00:41:28 77.24
4 Boussy Frederik 00:42:14 76.31
5 Deom Julien 00:42:27 76.05
6 Marynissen Ruben 00:42:31 75.97
7 Koole Niels 00:42:31 75.97
8 Devloo Casier Kjell 00:42:37 75.85
9 Degryse Thijs 00:42:45 75.68
10 Vandenbroele Niels 00:42:45 75.68
11 Sanders Sören 00:43:03 75.32
12 Vinden Van Der Gert 00:43:05 75.28
13 Verbeke Mike 00:43:11 75.16
14 Coysman Joke 00:43:31 82.60
15 Cauwelier Wannes 00:43:34 74.70
16 Deknudt Bart 00:44:41 73.35
17 Bonne Bart 00:45:19 72.58
18 Aelvoet Stijn 00:45:47 72.02
19 Thaithuc Yann 00:45:49 71.98
20 Hauspie Steve 00:45:49 71.98
21 De Dobbelaere Jan 00:45:59 71.78
22 Blomme Kris 00:46:18 71.39
23 Bruyneel Stijn 00:46:29 71.17
24 Debruyne Frederik 00:46:42 70.91
25 Van Velthoven Koen 00:46:44 70.87
26 Haeck Steven 00:46:47 70.81
27 De Hon Erwin 00:46:51 70.73
28 Van Haverbeke Arno 00:47:10 70.35
29 Pistolesi Sebastiano 00:47:28 69.98
30 Van Der Meulen Marco 00:47:33 69.88
31 Lamont Kurt 00:47:46 69.62
32 Verburgh Patrick 00:47:54 69.46
33 Danneels Anne-mie 00:47:54 76.70
34 Potvin Sven 00:47:57 69.40
35 Vanderkeilen Peter 00:47:58 69.38
36 Fieuw Christoph 00:48:07 69.20
37 Vervaet Martin 00:48:07 69.20
38 Ghysens Dimitri 00:48:11 69.12
39 Haeghebaert Robin 00:48:14 69.06
40 Rabout Theo 00:48:16 69.02
41 De Keulenaer Hans 00:48:23 68.88
42 Dejardin Stéphane 00:48:25 68.84
43 Vandorpe Peter 00:48:29 68.76
44 Manconi Moise 00:48:29 68.76
45 MAUS Kenneth 00:48:34 68.66
46 Wiltgen Pia 00:48:36 75.95
47 Van Hauteghem Hans 00:48:37 68.59
48 Hamers Benoit 00:48:44 68.45
49 Dryepondt Peter 00:49:01 68.11
50 Vandevelde Liesbeth 00:49:04 75.45
51 Coussement Tom 00:49:09 67.95
52 De Block Gino 00:49:12 67.89
53 Himpe Sochem 00:49:22 67.69
54 Yersteyhe Ansfried 00:49:23 67.67
55 D'espallier Thomas 00:49:25 67.63
56 Verbeke Bert 00:49:28 67.57
57 Delmelle Ludovic 00:49:48 67.16
58 Decorte Frank 00:49:52 67.08
59 Holvoet Pieter 00:50:10 66.72
60 Zuidhof Léon 00:50:17 66.58
61 Vasseur Veronique 00:50:21 74.07
62 Marcel Traas 00:50:31 66.30
63 Vercaigne Andy 00:50:37 66.18
64 De Waele Valerie 00:50:48 73.59
65 Hendrickx Francis 00:50:52 65.88
66 Vandeputte Olivier 00:50:52 65.88
67 Vermeersch Tom 00:50:52 65.88
68 Nollet Cindy 00:51:09 73.21
69 De Rycke Koenraad 00:51:15 65.41
70 Veringmeier Norbert 00:51:20 65.31
71 Verfaillie Ju?rgen 00:51:23 65.25
72 Van De Velde Haike 00:51:25 72.92
73 Trenson Bieke 00:51:25 72.92
74 De Block Maxim 00:51:43 64.85
75 Marreyt Chris 00:51:45 64.81
76 Vigny Laurent 00:51:47 64.77
77 De Pagter Kevin 00:51:53 64.65
78 Vanhecke Klaas 00:52:00 64.51
79 Heuzel Laurens 00:52:08 64.34
80 Guillemyn Dieter 00:52:10 64.30
81 Franssens Whoopy 00:52:14 64.22
82 Derhore Mathias 00:52:15 64.20
83 Claeys Christophe 00:52:22 64.06
84 Tempelaere Brecht 00:52:39 63.72
85 Rootsaert Arno 00:52:47 63.56
86 Bailliu Bjorn 00:52:54 63.42
87 Jansen Sonja 00:53:01 71.21
88 Vandierendonck Tom 00:53:06 63.18
89 Dickx Nico 00:53:16 62.98
90 Vantorre Koen 00:53:26 62.77
91 Plaetinck Silke 00:53:30 70.69
92 De Jaeger-Braet Els 00:53:34 70.62
93 Reynaert Tom 00:53:36 62.57
94 De Bree Frank 00:53:36 62.57
95 Utterwulghe Geert 00:53:44 62.41
96 Walder Guy 00:53:47 62.35
97 Buysse Didier 00:53:51 62.27
98 Vandendorpe Fauve 00:53:59 70.17
99 Vanderhaeghe Vital 00:54:05 70.06
100 Arijs Cedric 00:54:12 61.85
101 Debrabandere Tim 00:54:29 61.50
102 Dewaele Didier 00:54:33 61.42
103 Vanderhaeghe Dries 00:54:36 61.36
104 Dejaeghere Jimmy 00:54:52 61.04
105 Allemeersch Greet 00:54:55 69.17
106 Versieren Peter 00:55:06 60.76
107 Borremans Maarten 00:55:08 60.72
108 Goedgebeur Jacques 00:55:09 60.70
109 Van Hecke Peter 00:55:10 60.68
110 Lepoudre Sharon 00:55:15 68.81
111 Vandamme Nancy 00:55:22 68.69
112 Schoonackers Hans 00:55:23 60.42
113 Vandenbroucke Frank 00:55:24 60.40
114 Feyter De Simon 00:55:26 60.36
115 Ossieur Patrick 00:55:40 60.07
116 Reyniers Bart 00:55:41 60.05
117 Buysse Carry 00:55:41 60.05
118 Van Hal Robin 00:55:45 59.97
119 Berton Jeffrey 00:55:48 59.91
120 Deceuninck Gino 00:55:49 59.89
121 De Maerteleere Luc 00:55:49 59.89
122 Tytgat Kris 00:55:50 59.87
123 Cartreul Annelies 00:55:50 68.19
124 Knoll Bart 00:55:58 59.71
125 Kuijpers Roelof 00:55:58 59.71
126 Lierman Peter 00:56:00 59.67
127 Mertens Bart 00:56:23 59.21
128 Roelants Sarah 00:56:26 67.54
129 Provoost Geert 00:56:30 59.07
130 Vanrysselberghe Philippe 00:56:31 59.05
131 Clarys Barbara 00:56:40 67.29
132 Vande Kerckhove Julie 00:56:44 67.22
133 Lecluyse Daphne 00:56:52 67.08
134 Vanleenhove Frank 00:57:01 58.44
135 Vankeirsbilck Dominique 00:57:03 58.40
136 Van Hoecke Ann-sophie 00:57:04 66.86
137 De Boer Ingrid 00:57:07 66.81
138 Ville Bruno 00:57:10 58.26
139 Catry Laura 00:57:13 66.70
140 Casselman Stijn 00:57:16 58.14
141 Debrabandere Sylvia 00:57:33 66.34
142 Rappe Patrick 00:57:38 57.70
143 Pieters Cindy 00:57:38 66.26
144 Vandermeulen Jean-luc 00:57:45 57.56
145 Haubourdin Serge 00:57:45 57.56
146 Devos Geert 00:57:46 57.54
147 Buysse Karen 00:57:59 65.88
148 Devooght Roald 00:58:07 57.11
149 Van Rumst Thea 00:58:09 65.70
150 Gonzo Julien 00:58:21 56.83
151 Margo Koen 00:58:27 56.71
152 Dloddere Jean 00:58:38 56.49
153 De Roeck Bart 00:59:00 56.05
154 Coomans Natalie 00:59:04 64.72
155 Goethals Frederick 00:59:05 55.95
156 Dobbelaere Luk 00:59:08 55.89
157 Trio Kelly 00:59:09 64.63
158 Bullynck Nick 00:59:23 55.58
159 Maus Yannick 00:59:27 55.50
160 Dijkwel Peter 00:59:32 55.40
161 Verhelst Pascale 00:59:42 64.04
162 Van Camp Greet 00:59:46 63.97
163 Ackaert Bart 00:59:48 55.08
164 Dens Leen 00:59:51 63.88
165 Heyneman Nancy 00:59:53 63.84
166 Gille-turin Arthur 00:59:57 54.90
167 De Bleeker Michel 01:00:01 54.82
168 Blyweert Wim 01:00:05 54.74
169 Tiebackx Patrick 01:00:12 54.60
170 Grahame Ricardo 01:00:21 54.42
171 Van Wayenbergh Kurt 01:00:29 54.25
172 RogghÉ Kris 01:00:48 53.87
173 Vanparys Joseph 01:00:51 53.81
174 Bonne Yasmine 01:01:07 62.52
175 Mollu Kristof 01:01:19 53.25
176 Lemeire Jos 01:01:22 53.19
177 Mertens Staf 01:01:25 53.13
178 Hauspie Fien 01:01:27 62.16
179 Swimberghe Siemon 01:01:28 53.07
180 Viane Ruth 01:01:37 61.98
181 Onraet An-sofie 01:01:53 61.70
182 De Clerck Vicky 01:02:02 61.53
183 Verdonck Joyce 01:02:30 61.03
184 Van Den Brempt Kim 01:02:31 51.80
185 Vertriest Valentina 01:02:35 60.94
186 Van Bruggen Ben 01:02:40 51.62
187 Vandenabeele Christophe 01:02:58 51.25
188 Kint Edwin 01:03:05 51.11
189 Lehaen Raf 01:03:07 51.07
190 Van Raemdonck Yani 01:03:14 60.25
191 Van Ooteghem Ruth 01:03:17 60.19
192 Geerts Nathalie 01:03:54 59.53
193 Van Hyfte Lisa 01:03:55 59.51
194 Bruneel Kennith 01:03:58 50.04
195 De Duytsche Hans 01:04:29 49.42
196 Vasseur Dorien 01:05:20 57.99
197 De Buck Caroline 01:05:44 57.57
198 Devinck Martine 01:05:49 57.48
199 Van Summeren Maycke 01:05:58 57.31
200 Antonissen Yara 01:06:01 57.26
201 Morbée Sofie 01:06:06 57.17
202 Verduyn Stefanie 01:06:08 57.14
203 Vaeremans Luc 01:06:13 47.33
204 Neyts Peter 01:06:32 46.94
205 Bruynooghe Joëlle 01:06:58 56.24
206 Roumieux Michiel 01:07:20 45.98
207 Desutter Valérie 01:07:53 55.26
208 De Beule Mark 01:08:12 44.93
209 Deloddere Sophie 01:08:12 54.92
210 De Ruiter Dirk 01:08:16 44.85
211 Verbouw Sylvia 01:08:36 54.49
212 Caestecker Laurens 01:09:07 43.82
213 Depoorter Freya 01:09:26 53.60
214 Pattist Kelly 01:09:30 53.52
215 Tas Esther 01:11:23 51.50
216 Demey David 01:11:23 41.08
217 Vervoort Nadine 01:11:34 51.31
218 Van Ooteghem Tom 01:11:43 40.68
219 Vanthournout Axelle 01:12:12 50.63
220 Walder Fleur 01:12:12 50.63
221 RappÉ Greetje 01:12:42 50.09
222 Michiels Nathalie 01:12:45 50.04
223 Appelmans Sabine 01:12:45 50.04
224 De Baets Eddy-ray 01:13:05 39.03
225 Boel Soen Jong 01:13:31 49.21
226 Vanparys Marijke 01:13:52 48.84
227 Swinnen Cathy 01:14:14 48.45
228 Lathouwers Emiel 01:14:40 37.11
229 Van Houtte Gabriel 01:16:25 35.00
230 Vanderhaeghe Amabel 01:17:31 33.17
231 Vernieuwe Hilde 01:17:57 44.46
232 De Saedelaere Katrien 01:18:03 44.35
233 De Rese Linda 01:18:41 43.67
234 Willems Lieve 01:19:46 42.51
235 Vercaeme Catharine 01:22:18 39.79
236 Ivo Chris 01:22:21 39.74
237 Hanseeuw Emely 01:24:45 37.16
238 Hanseeuw Shirley 01:26:32 34.75

Reacties

  • 5 jaar geleden

    Beste

    Deze staan nu ook online.

    Mvg

  • 5 jaar geleden

    Leuke zwemloop maar kan de uitslagen niet vinden?
    Kan iemand mij vertellen waar ik deze kan vinden.

  • 5 jaar geleden

    Dag Ivo

    deze werkt, maar is afhankelijk van wat er werd ingegeven per wedstrijd. Op trio vind je inderdaad niet zo veel. We passen dit zo snel mogelijk aan (is aan onze todo lijst toegevoegd)

    Mvg

  • 5 jaar geleden

    kan het zijn dat de zoekfunctie niet werkt? want ben opzoek naar trio triatlons.

  • 5 jaar geleden

    Dag Frederik

    we hebben dit nagevraagd. De voorinschrijvingen gaan open op 7 april 2014.
    Mvg

  • 5 jaar geleden

    Iemand enig idee waar in te schrijven? Op de website staat vanaf 1 april, maar nergens te vinden waar juist...

  • 5 jaar geleden

    Bedankt Natalie (wss foutje van de toevoeger en niet opgemerkt door ons)

  • 5 jaar geleden

    Datum Zwemloop Sluis klopt niet, moet 19 juli 2014 zijn.